| time (UTC) | temp C | wind direction | speed KPH | gust KPH | rain 1hr cm | rain 24hr cm | rain mn cm | humidity % | barometer mb |
| 20260831214506 | 34 | 102 | 8.0 | 19.3 | 0.00 | 0.00 | 0.00 | 29 | 1006.5 |
| 20260831213006 | 33 | 95 | 11.3 | 22.5 | 0.00 | 0.00 | 0.00 | 29 | 1006.6 |
| 20260831211503 | 33 | 94 | 6.4 | 20.9 | 0.00 | 0.00 | 0.00 | 29 | 1006.9 |
| 20260831210002 | 33 | 120 | 9.7 | 17.7 | 0.00 | 0.00 | 0.00 | 29 | 1007.1 |
| 20260831204504 | 33 | 360 | 9.7 | 32.2 | 0.00 | 0.00 | 0.00 | 29 | 1007.1 |
| 20260831203001 | 33 | 97 | 11.3 | 32.2 | 0.00 | 0.00 | 0.00 | 29 | 1007.0 |
| 20260831201600 | 34 | 86 | 6.4 | 17.7 | 0.00 | 0.00 | 0.00 | 29 | 1007.5 |
| 20260831200101 | 34 | 360 | 8.0 | 17.7 | 0.00 | 0.00 | 0.00 | 28 | 1007.7 |
| 20260831194629 | 35 | 133 | 8.0 | 14.5 | 0.00 | 0.00 | 0.00 | 28 | 1007.9 |
| 20260831193057 | 34 | 215 | 3.2 | 12.9 | 0.00 | 0.00 | 0.00 | 30 | 1007.9 |
| 20260831191552 | 33 | 99 | 9.7 | 17.7 | 0.00 | 0.00 | 0.00 | 30 | 1008.2 |
| 20260831190110 | 33 | 108 | 8.0 | 17.7 | 0.00 | 0.00 | 0.00 | 31 | 1008.2 |
| 20260831184557 | 32 | 84 | 9.7 | 27.4 | 0.00 | 0.00 | 0.00 | 32 | 1008.4 |
| 20260831183046 | 32 | 114 | 8.0 | 20.9 | 0.00 | 0.00 | 0.00 | 33 | 1008.7 |
| 20260831181548 | 32 | 117 | 9.7 | 22.5 | 0.00 | 0.00 | 0.00 | 33 | 1008.9 |
| 20260831180042 | 32 | 143 | 9.7 | 25.7 | 0.00 | 0.00 | 0.00 | 34 | 1009.0 |
| 20260831174541 | 32 | 162 | 11.3 | 24.1 | 0.00 | 0.00 | 0.00 | 35 | 1009.2 |
| 20260831173037 | 32 | 151 | 12.9 | 22.5 | 0.00 | 0.00 | 0.00 | 37 | 1009.3 |
| 20260831171533 | 32 | 178 | 9.7 | 24.1 | 0.00 | 0.00 | 0.00 | 37 | 1009.4 |
| 20260831170031 | 31 | 214 | 11.3 | 20.9 | 0.00 | 0.00 | 0.00 | 37 | 1009.5 |
| 20260831164528 | 31 | 156 | 11.3 | 25.7 | 0.00 | 0.00 | 0.00 | 43 | 1009.5 |
| 20260831163025 | 30 | 207 | 11.3 | 20.9 | 0.00 | 0.00 | 0.00 | 47 | 1009.5 |
| 20260831161521 | 29 | 154 | 11.3 | 20.9 | 0.00 | 0.00 | 0.00 | 50 | 1009.5 |
| 20260831160021 | 28 | 165 | 9.7 | 25.7 | 0.00 | 0.00 | 0.00 | 51 | 1009.4 |
| 20260831154523 | 28 | 165 | 11.3 | 22.5 | 0.00 | 0.00 | 0.00 | 53 | 1009.6 |
| 20260831153012 | 27 | 360 | 12.9 | 22.5 | 0.00 | 0.00 | 0.00 | 55 | 1009.5 |
| 20260831151502 | 27 | 162 | 14.5 | 27.4 | 0.00 | 0.00 | 0.00 | 56 | 1009.4 |
| 20260831150103 | 26 | 164 | 12.9 | 24.1 | 0.00 | 0.00 | 0.00 | 58 | 1009.4 |
| 20260831144559 | 26 | 199 | 14.5 | 24.1 | 0.00 | 0.00 | 0.00 | 60 | 1009.3 |
| 20260831143054 | 25 | 149 | 14.5 | 33.8 | 0.00 | 0.00 | 0.00 | 62 | 1009.6 |
| 20260831141555 | 25 | 167 | 14.5 | 25.7 | 0.00 | 0.00 | 0.00 | 64 | 1009.6 |
| 20260831140047 | 24 | 196 | 12.9 | 25.7 | 0.00 | 0.00 | 0.00 | 64 | 1009.6 |
| 20260831134552 | 23 | 160 | 12.9 | 24.1 | 0.00 | 0.00 | 0.00 | 63 | 1009.3 |
| 20260831133038 | 23 | 200 | 11.3 | 24.1 | 0.00 | 0.00 | 0.00 | 63 | 1009.0 |
| 20260831131533 | 23 | 151 | 11.3 | 20.9 | 0.00 | 0.00 | 0.00 | 63 | 1008.7 |
| 20260831130028 | 22 | 160 | 11.3 | 22.5 | 0.00 | 0.00 | 0.00 | 63 | 1008.6 |
| 20260831124524 | 22 | 180 | 8.0 | 16.1 | 0.00 | 0.00 | 0.00 | 62 | 1008.4 |
| 20260831123019 | 22 | 194 | 6.4 | 12.9 | 0.00 | 0.00 | 0.00 | 61 | 1008.3 |
| 20260831121523 | 22 | 165 | 9.7 | 17.7 | 0.00 | 0.00 | 0.00 | 60 | 1008.1 |
| 20260831120027 | 23 | 179 | 11.3 | 19.3 | 0.00 | 0.00 | 0.00 | 59 | 1008.2 |
| 20260831114512 | 23 | 157 | 9.7 | 20.9 | 0.00 | 0.00 | 0.00 | 58 | 1008.1 |
| 20260831113006 | 23 | 191 | 11.3 | 20.9 | 0.00 | 0.00 | 0.00 | 58 | 1008.2 |
| 20260831111501 | 23 | 198 | 9.7 | 17.7 | 0.00 | 0.00 | 0.00 | 57 | 1008.3 |
| 20260831110059 | 23 | 193 | 11.3 | 17.7 | 0.00 | 0.00 | 0.00 | 57 | 1008.1 |
| 20260831104600 | 23 | 198 | 8.0 | 16.1 | 0.00 | 0.00 | 0.00 | 56 | 1008.1 |
| 20260831103053 | 23 | 197 | 9.7 | 17.7 | 0.00 | 0.00 | 0.00 | 56 | 1008.1 |
| 20260831101549 | 23 | 195 | 11.3 | 17.7 | 0.00 | 0.00 | 0.00 | 55 | 1007.9 |
| 20260831100047 | 24 | 200 | 11.3 | 19.3 | 0.00 | 0.00 | 0.00 | 55 | 1007.9 |
| 20260831094552 | 24 | 178 | 11.3 | 19.3 | 0.00 | 0.00 | 0.00 | 54 | 1007.8 |
| 20260831093059 | 25 | 206 | 11.3 | 20.9 | 0.00 | 0.00 | 0.00 | 53 | 1007.8 |
| 20260831091546 | 25 | 191 | 9.7 | 19.3 | 0.00 | 0.00 | 0.00 | 53 | 1007.6 |
| 20260831090033 | 25 | 202 | 12.9 | 25.7 | 0.00 | 0.00 | 0.00 | 53 | 1007.5 |
| 20260831084607 | 25 | 226 | 11.3 | 22.5 | 0.00 | 0.00 | 0.00 | 52 | 1007.6 |
| 20260831083024 | 25 | 179 | 8.0 | 20.9 | 0.00 | 0.00 | 0.00 | 51 | 1007.5 |
| 20260831081523 | 25 | 210 | 9.7 | 16.1 | 0.00 | 0.00 | 0.00 | 50 | 1007.6 |
| 20260831080035 | 25 | 208 | 9.7 | 17.7 | 0.00 | 0.00 | 0.00 | 49 | 1007.7 |
| 20260831074522 | 25 | 216 | 8.0 | 16.1 | 0.00 | 0.00 | 0.00 | 47 | 1007.6 |
| 20260831073006 | 25 | 199 | 8.0 | 16.1 | 0.00 | 0.00 | 0.00 | 46 | 1007.9 |
| 20260831071502 | 26 | 177 | 8.0 | 14.5 | 0.00 | 0.00 | 0.00 | 45 | 1007.8 |
| 20260831070058 | 26 | 165 | 8.0 | 19.3 | 0.00 | 0.00 | 0.00 | 43 | 1007.8 |
| 20260831064557 | 26 | 193 | 9.7 | 19.3 | 0.00 | 0.00 | 0.00 | 42 | 1007.8 |
| 20260831063106 | 26 | 202 | 8.0 | 14.5 | 0.00 | 0.00 | 0.00 | 41 | 1007.8 |
| 20260831061547 | 27 | 196 | 8.0 | 14.5 | 0.00 | 0.00 | 0.00 | 41 | 1007.9 |
| 20260831060140 | 27 | 200 | 8.0 | 17.7 | 0.00 | 0.00 | 0.00 | 40 | 1007.8 |
| 20260831054540 | 27 | 202 | 9.7 | 19.3 | 0.00 | 0.00 | 0.00 | 39 | 1007.9 |
| 20260831053050 | 27 | 180 | 9.7 | 24.1 | 0.00 | 0.00 | 0.00 | 38 | 1007.8 |
| 20260831051541 | 28 | 179 | 12.9 | 24.1 | 0.00 | 0.00 | 0.00 | 37 | 1007.7 |
| 20260831050038 | 28 | 145 | 9.7 | 20.9 | 0.00 | 0.00 | 0.00 | 36 | 1007.7 |
| 20260831044538 | 28 | 165 | 11.3 | 20.9 | 0.00 | 0.00 | 0.00 | 36 | 1007.6 |
| 20260831043041 | 28 | 146 | 9.7 | 17.7 | 0.00 | 0.00 | 0.00 | 35 | 1007.5 |
| 20260831041543 | 29 | 149 | 8.0 | 16.1 | 0.00 | 0.00 | 0.00 | 35 | 1007.3 |
| 20260831040040 | 29 | 153 | 8.0 | 16.1 | 0.00 | 0.00 | 0.00 | 35 | 1007.2 |
| 20260831034535 | 30 | 153 | 8.0 | 20.9 | 0.00 | 0.00 | 0.00 | 35 | 1007.0 |
| 20260831033036 | 30 | 143 | 9.7 | 20.9 | 0.00 | 0.00 | 0.00 | 34 | 1006.9 |
| 20260831031534 | 30 | 153 | 11.3 | 20.9 | 0.00 | 0.00 | 0.00 | 34 | 1006.8 |
| 20260831030043 | 30 | 149 | 9.7 | 17.7 | 0.00 | 0.00 | 0.00 | 33 | 1006.6 |
| 20260831024536 | 31 | 148 | 8.0 | 19.3 | 0.00 | 0.00 | 0.00 | 33 | 1006.4 |
| 20260831023032 | 31 | 134 | 9.7 | 19.3 | 0.00 | 0.00 | 0.00 | 32 | 1006.1 |
| 20260831021532 | 31 | 147 | 8.0 | 16.1 | 0.00 | 0.00 | 0.00 | 31 | 1005.9 |
| 20260831020032 | 31 | 128 | 6.4 | 11.3 | 0.00 | 0.00 | 0.00 | 29 | 1005.7 |
| 20260831014535 | 32 | 128 | 6.4 | 11.3 | 0.00 | 0.00 | 0.00 | 28 | 1005.6 |
| 20260831013030 | 32 | 121 | 6.4 | 14.5 | 0.00 | 0.00 | 0.00 | 27 | 1005.5 |
| 20260831011529 | 33 | 122 | 6.4 | 11.3 | 0.00 | 0.00 | 0.00 | 26 | 1005.3 |
| 20260831010031 | 33 | 109 | 9.7 | 20.9 | 0.00 | 0.00 | 0.00 | 25 | 1005.4 |
| 20260831004528 | 34 | 116 | 8.0 | 14.5 | 0.00 | 0.00 | 0.00 | 24 | 1005.2 |
| 20260831003029 | 34 | 120 | 9.7 | 17.7 | 0.00 | 0.00 | 0.00 | 23 | 1005.2 |
| 20260831001527 | 34 | 119 | 8.0 | 14.5 | 0.00 | 0.00 | 0.00 | 23 | 1005.1 |
| 20260831000027 | 35 | 111 | 8.0 | 20.9 | 0.00 | 0.00 | 0.00 | 22 | 1005.1 |
| 20260830234526 | 35 | 153 | 8.0 | 16.1 | 0.00 | 0.00 | 0.00 | 22 | 1005.1 |
| 20260830233027 | 36 | 115 | 11.3 | 19.3 | 0.00 | 0.00 | 0.00 | 22 | 1005.0 |
| 20260830231525 | 36 | 162 | 9.7 | 19.3 | 0.00 | 0.00 | 0.00 | 21 | 1005.2 |
| 20260830230024 | 36 | 163 | 8.0 | 16.1 | 0.00 | 0.00 | 0.00 | 21 | 1005.1 |
| 20260830224523 | 36 | 150 | 9.7 | 25.7 | 0.00 | 0.00 | 0.00 | 21 | 1005.1 |
| 20260830223025 | 36 | 134 | 3.2 | 11.3 | 0.00 | 0.00 | 0.00 | 20 | 1005.2 |
| 20260830221522 | 36 | 162 | 9.7 | 22.5 | 0.00 | 0.00 | 0.00 | 21 | 1005.2 |
| 20260830220022 | 36 | 129 | 11.3 | 20.9 | 0.00 | 0.00 | 0.00 | 21 | 1005.3 |